#timestamp,LO_Frequency,Hit 
1499540415.0,286047017.3,N
1499540415.9,286047017.3,N
1499540435.7,286047017.4,N
1499540455.6,286047017.6,N
1499540475.4,286047019.8,N
1499540495.2,286047019.7,N
1499540515.1,286047020.6,N
1499540516.0,286047020.6,N
1499540535.8,286047023.1,N
1499540555.6,286047023.0,N
1499540575.5,286047021.1,N
1499540595.3,286047021.3,N
1499540615.1,286047021.1,N
1499540635.9,286047021.5,N
1499540655.7,286047023.2,N
1499540675.5,286047023.0,N
1499540695.4,286047022.9,N
1499540715.2,286047024.3,N
1499540735.0,286047025.2,N
1499540735.9,286047025.2,N
1499540755.8,286047023.5,N
1499540775.6,286047025.1,N
1499540795.4,286047024.0,N
1499540815.2,286047025.2,N
1499540835.1,286047022.7,N
1499540836.0,286047022.7,N
1499540855.8,286047023.9,N
1499540875.6,286047026.0,N
1499540895.5,286047028.3,N
1499540915.3,286047026.0,N
1499540935.1,286047026.2,N
1499540955.9,286047026.8,N
1499540975.7,286047024.4,N
1499540995.5,286047024.5,N
1499541015.4,286047023.7,N
1499541035.2,286047026.6,N
1499541055.0,286047026.8,N
1499541055.9,286047026.8,N
1499541075.8,286047024.2,N
1499541095.6,286047026.1,N
1499541115.4,286047025.3,N
1499541135.3,286047026.1,N
1499541155.1,286047028.0,N
1499541156.0,286047028.0,N
1499541175.8,286047028.1,N
1499541195.7,286047028.4,N
1499541215.5,286047025.9,N
1499541235.3,286047025.7,N
1499541255.2,286047027.8,N
1499541275.9,286047029.8,N
1499541295.7,286047027.5,N
1499541315.6,286047029.5,N
1499541335.4,286047029.1,N
1499541355.2,286047029.9,N
1499541375.0,286047029.1,N
1499541376.0,286047029.1,N
1499541395.8,286047028.8,N
1499541415.6,286047029.5,N
1499541435.4,286047029.1,N
1499541455.3,286047028.5,N
1499541475.1,286047029.6,N
1499541495.8,286047030.0,N
1499541515.7,286047027.3,N
1499541535.5,286047029.0,N
1499541555.3,286047028.6,N
1499541575.2,286047030.8,N
1499541595.9,286047031.0,N
1499541615.7,286047031.1,N
1499541635.6,286047028.5,N
1499541655.4,286047031.0,N
1499541675.2,286047030.5,N
1499541695.1,286047028.9,N
1499541696.0,286047028.9,N
1499541715.8,286047031.4,N
1499541735.6,286047030.9,N
1499541755.5,286047030.9,N
1499541775.3,286047030.6,N
1499541795.1,286047031.2,N
1499541815.8,286047031.6,N
1499541835.7,286047031.2,N
1499541855.5,286047031.0,N
1499541875.3,286047028.5,N
1499541895.2,286047030.4,N
1499541915.0,286047031.5,N
1499541915.9,286047031.5,N
1499541935.7,286047031.6,N
1499541955.6,286047030.2,N
1499541975.4,286047031.4,N
1499541995.2,286047033.1,N
1499542015.1,286047030.3,N
1499542016.0,286047030.3,N
1499542035.8,286047030.5,N
1499542055.6,286047031.4,N
1499542075.5,286047032.7,N
1499542095.3,286047032.9,N
1499542115.1,286047032.3,N
1499542135.9,286047032.3,N
1499542155.7,286047032.9,N
1499542175.5,286047031.9,N
1499542195.4,286047034.7,N
1499542215.2,286047031.7,N
1499542235.0,286047033.6,N
1499542235.9,286047033.6,N
1499542255.8,286047033.3,N
1499542275.6,286047034.3,N
1499542295.4,286047032.5,N
1499542315.2,286047031.7,N
1499542335.1,286047033.3,N
1499542336.0,286047033.3,N
1499542355.8,286047033.6,N
1499542375.6,286047034.5,N
1499542395.5,286047035.9,N
1499542415.3,286047035.2,N
1499542435.1,286047036.2,N
1499542455.9,286047033.9,N
1499542475.7,286047035.9,N
1499542495.5,286047033.7,N
1499542515.4,286047035.7,N
1499542535.2,286047035.6,N
1499542555.0,286047035.5,N
1499542555.9,286047035.5,N
1499542575.8,286047035.7,N
1499542595.6,286047035.4,N
1499542615.4,286047037.3,N
1499542635.6,286047035.8,N
1499542655.4,286047036.1,N
1499542675.2,286047035.9,N
1499542695.1,286047033.8,N
1499542696.0,286047033.8,N
1499542715.8,286047035.9,N
1499542735.6,286047035.9,N
1499542755.5,286047037.4,N
1499542775.3,286047036.8,N
1499542795.1,286047035.6,N
1499542815.9,286047035.2,N
1499542835.7,286047035.6,N
1499542855.5,286047037.5,N
1499542875.4,286047036.9,N
1499542895.2,286047037.7,N
1499542915.0,286047038.0,N
1499542915.9,286047038.0,N
1499542935.7,286047037.1,N
1499542955.6,286047037.9,N
1499542975.4,286047035.8,N
1499542995.2,286047034.9,N
1499543015.1,286047039.6,N
1499543016.0,286047039.6,N
1499543035.8,286047037.0,N
1499543055.6,286047039.5,N
1499543075.5,286047039.2,N
1499543095.3,286047039.4,N
1499543115.1,286047038.6,N
1499543135.9,286047039.0,N
1499543155.7,286047038.6,N
1499543175.5,286047038.2,N
1499543195.4,286047039.3,N
1499543215.2,286047038.4,N
1499543235.1,286047038.2,N
1499543236.0,286047038.2,N
1499543255.8,286047038.4,N
1499543275.7,286047038.5,N
1499543295.5,286047038.7,N
1499543315.3,286047041.0,N
1499543335.1,286047041.1,N
1499543355.9,286047042.6,N
1499543375.7,286047040.3,N
1499543395.5,286047040.2,N
1499543415.4,286047040.1,N
1499543435.2,286047042.7,N
1499543455.0,286047044.3,N
1499543455.9,286047044.3,N
1499543475.8,286047043.3,N
1499543495.6,286047042.9,N
1499543515.4,286047045.9,N
1499543535.3,286047043.2,N
1499543555.1,286047043.4,N
1499543575.8,286047044.0,N
1499543595.7,286047039.8,N
1499543615.5,286047040.5,N
1499543635.3,286047042.1,N
1499543655.3,286047043.9,N
1499543675.1,286047043.6,N
1499543695.9,286047041.7,N
1499543715.7,286047042.1,N
1499543735.5,286047044.2,N
1499543755.3,286047044.0,N
1499543775.2,286047044.1,N
1499543795.0,286047043.2,N
1499543795.9,286047043.2,N
1499543815.7,286047043.6,N
1499543835.6,286047043.7,N
1499543855.4,286047043.1,N
1499543875.2,286047043.2,N
1499543895.1,286047046.0,N
1499543896.0,286047046.0,N
1499543915.8,286047043.7,N
1499543935.6,286047044.6,N
1499543955.5,286047047.1,N
1499543975.3,286047047.4,N
1499543995.1,286047047.2,N
